QPF
0.05 0.04 0.03 0.03 0.02 0.02 0.02 0.02 0.02 0.02 0.06 0.10 0.09 0.06 0.05 0.05 0.04 0.03 0.03 0.03 0.04 0.05 0.05 0.06 0.05 0.06 0.06 0.07 0.10 0.15 0.15 0.14 0.12 0.06 0.05 0.06 0.04 0.03 0.06 0.06 0.08 0.11 0.12
0.03 0.03 0.02 0.03 0.03 0.02 0.02 0.02 0.03 0.03 0.04 0.09 0.14 0.12 0.08 0.06 0.04 0.03 0.02 0.02 0.04 0.05 0.06 0.06 0.05 0.06 0.07 0.08 0.09 0.11 0.12 0.12 0.12 0.08 0.07 0.08 0.08 0.07 0.08 0.06 0.06 0.06 0.07
0.02 0.01 0.02 0.02 0.02 0.03 0.03 0.03 0.03 0.03 0.04 0.06 0.10 0.13 0.11 0.07 0.05 0.04 0.04 0.03 0.03 0.04 0.05 0.05 0.05 0.07 0.06 0.06 0.07 0.07 0.09 0.10 0.09 0.07 0.05 0.05 0.05 0.04 0.06 0.05 0.05 0.05 0.05
0.03 0.03 0.03 0.03 0.03 0.04 0.06 0.06 0.05 0.05 0.05 0.05 0.07 0.09 0.11 0.10 0.08 0.07 0.06 0.04 0.03 0.04 0.04 0.04 0.06 0.06 0.05 0.05 0.05 0.06 0.07 0.07 0.07 0.06 0.04 0.04 0.04 0.04 0.05 0.04 0.03 0.03 0.03
0.04 0.05 0.07 0.07 0.04 0.04 0.04 0.06 0.08 0.09 0.07 0.06 0.06 0.07 0.10 0.13 0.11 0.08 0.07 0.05 0.04 0.06 0.05 0.05 0.05 0.05 0.04 0.04 0.05 0.06 0.09 0.09 0.07 0.06 0.05 0.04 0.03 0.03 0.03 0.03 0.02 0.03 0.02
0.05 0.07 0.07 0.06 0.04 0.03 0.03 0.04 0.05 0.08 0.10 0.08 0.07 0.07 0.07 0.07 0.09 0.09 0.07 0.06 0.05 0.05 0.05 0.06 0.07 0.06 0.05 0.05 0.05 0.07 0.07 0.08 0.08 0.08 0.07 0.06 0.04 0.04 0.03 0.03 0.03 0.03 0.02
0.04 0.05 0.05 0.04 0.03 0.04 0.04 0.03 0.03 0.04 0.06 0.07 0.07 0.08 0.07 0.06 0.07 0.08 0.08 0.07 0.06 0.04 0.05 0.06 0.05 0.04 0.05 0.04 0.04 0.05 0.04 0.06 0.09 0.09 0.09 0.07 0.06 0.04 0.05 0.05 0.03 0.03 0.02
0.05 0.06 0.05 0.05 0.05 0.05 0.03 0.03 0.03 0.04 0.04 0.05 0.06 0.07 0.06 0.07 0.09 0.08 0.08 0.08 0.06 0.07 0.06 0.04 0.03 0.04 0.05 0.04 0.05 0.05 0.04 0.06 0.07 0.08 0.09 0.08 0.07 0.05 0.06 0.05 0.05 0.05 0.04
0.05 0.04 0.03 0.03 0.04 0.04 0.03 0.02 0.02 0.02 0.03 0.03 0.04 0.05 0.06 0.07 0.08 0.09 0.08 0.07 0.06 0.05 0.04 0.04 0.03 0.03 0.03 0.03 0.04 0.04 0.05 0.05 0.07 0.08 0.09 0.07 0.06 0.05 0.05 0.05 0.05 0.05 0.04
0.06 0.03 0.02 0.03 0.05 0.06 0.05 0.05 0.04 0.04 0.04 0.04 0.04 0.05 0.06 0.06 0.07 0.07 0.07 0.05 0.04 0.03 0.04 0.04 0.03 0.02 0.02 0.02 0.03 0.03 0.04 0.04 0.04 0.05 0.05 0.06 0.06 0.05 0.04 0.03 0.03 0.05 0.04
0.03 0.03 0.04 0.06 0.08 0.09 0.07 0.05 0.05 0.06 0.06 0.05 0.05 0.06 0.06 0.05 0.03 0.03 0.04 0.03 0.02 0.02 0.03 0.03 0.02 0.03 0.03 0.03 0.03 0.03 0.04 0.04 0.04 0.04 0.04 0.04 0.04 0.03 0.02 0.02 0.03 0.04 0.04
0.06 0.07 0.07 0.08 0.07 0.07 0.08 0.08 0.08 0.07 0.08 0.08 0.08 0.06 0.04 0.03 0.02 0.02 0.02 0.03 0.03 0.03 0.03 0.03 0.03 0.03 0.03 0.04 0.03 0.03 0.05 0.05 0.03 0.03 0.03 0.03 0.03 0.02 0.02 0.02 0.03 0.04 0.05
0.08 0.07 0.05 0.04 0.06 0.08 0.10 0.10 0.09 0.09 0.09 0.08 0.08 0.06 0.04 0.02 0.02 0.01 0.02 0.03 0.03 0.03 0.03 0.04 0.04 0.04 0.03 0.03 0.03 0.05 0.05 0.04 0.03 0.03 0.03 0.03 0.03 0.04 0.04 0.04 0.03 0.03 0.04
0.09 0.07 0.07 0.05 0.06 0.07 0.09 0.10 0.08 0.07 0.05 0.04 0.04 0.04 0.03 0.02 0.02 0.02 0.02 0.02 0.03 0.03 0.04 0.04 0.04 0.05 0.05 0.05 0.05 0.05 0.05 0.05 0.05 0.05 0.05 0.05 0.05 0.05 0.05 0.05 0.04 0.03 0.04
0.07 0.07 0.08 0.07 0.05 0.05 0.06 0.07 0.06 0.04 0.03 0.02 0.02 0.02 0.01 0.02 0.02 0.02 0.02 0.02 0.02 0.02 0.03 0.04 0.04 0.04 0.05 0.05 0.06 0.06 0.06 0.06 0.07 0.08 0.09 0.09 0.10 0.09 0.09 0.09 0.07 0.05 0.05
0.06 0.06 0.06 0.05 0.04 0.05 0.05 0.04 0.03 0.03 0.02 0.02 0.02 0.03 0.04 0.03 0.02 0.02 0.01 0.02 0.02 0.02 0.03 0.02 0.02 0.02 0.03 0.04 0.05 0.07 0.09 0.12 0.12 0.12 0.12 0.11 0.08 0.06 0.06 0.08 0.09 0.09 0.08
0.05 0.05 0.04 0.04 0.04 0.03 0.04 0.04 0.03 0.02 0.01 0.02 0.03 0.03 0.03 0.03 0.03 0.02 0.02 0.02 0.02 0.03 0.02 0.01 0.01 0.02 0.03 0.05 0.06 0.07 0.06 0.07 0.09 0.09 0.08 0.08 0.07 0.07 0.08 0.07 0.06 0.06 0.07
0.03 0.03 0.04 0.04 0.03 0.03 0.03 0.03 0.02 0.02 0.02 0.02 0.02 0.03 0.03 0.03 0.03 0.02 0.02 0.02 0.02 0.02 0.02 0.02 0.03 0.03 0.03 0.04 0.06 0.07 0.08 0.08 0.09 0.10 0.09 0.08 0.07 0.07 0.07 0.06 0.05 0.04 0.04
0.03 0.02 0.03 0.03 0.04 0.04 0.03 0.03 0.02 0.02 0.02 0.03 0.04 0.04 0.04 0.03 0.02 0.02 0.01 0.01 0.01 0.01 0.01 0.02 0.02 0.02 0.03 0.03 0.05 0.08 0.09 0.08 0.09 0.09 0.08 0.08 0.07 0.06 0.05 0.05 0.04 0.04 0.03
0.02 0.03 0.03 0.03 0.03 0.03 0.03 0.03 0.03 0.03 0.02 0.03 0.03 0.04 0.05 0.04 0.02 0.02 0.01 0.01 0.01 0.01 0.01 0.01 0.01 0.02 0.02 0.03 0.04 0.05 0.04 0.04 0.04 0.04 0.05 0.06 0.06 0.05 0.05 0.04 0.03 0.03 0.03
0.02 0.03 0.04 0.04 0.04 0.04 0.04 0.03 0.03 0.04 0.04 0.04 0.05 0.06 0.07 0.06 0.04 0.03 0.03 0.03 0.02 0.02 0.02 0.02 0.02 0.02 0.02 0.02 0.03 0.03 0.03 0.03 0.03 0.03 0.03 0.02 0.03 0.03 0.04 0.05 0.04 0.04 0.04
0.02 0.03 0.03 0.03 0.04 0.04 0.05 0.05 0.06 0.06 0.07 0.06 0.06 0.06 0.05 0.04 0.03 0.02 0.02 0.01 0.01 0.02 0.03 0.03 0.03 0.02 0.03 0.03 0.03 0.02 0.03 0.03 0.03 0.03 0.03 0.03 0.03 0.04 0.05 0.05 0.05 0.05 0.04
0.02 0.03 0.04 0.05 0.05 0.06 0.07 0.07 0.08 0.08 0.08 0.07 0.05 0.03 0.03 0.03 0.02 0.02 0.02 0.02 0.02 0.03 0.03 0.02 0.02 0.02 0.02 0.02 0.02 0.02 0.03 0.02 0.02 0.02 0.02 0.02 0.02 0.03 0.03 0.04 0.04 0.05 0.05
0.05 0.05 0.05 0.04 0.04 0.03 0.03 0.03 0.03 0.04 0.05 0.05 0.04 0.03 0.02 0.02 0.02 0.03 0.03 0.04 0.04 0.04 0.03 0.02 0.02 0.02 0.01 0.01 0.01 0.01 0.02 0.02 0.02 0.02 0.02 0.02 0.02 0.03 0.03 0.03 0.04 0.05 0.05
0.05 0.05 0.04 0.05 0.05 0.04 0.03 0.04 0.04 0.04 0.04 0.05 0.04 0.03 0.03 0.03 0.03 0.03 0.03 0.04 0.04 0.04 0.04 0.03 0.02 0.02 0.02 0.01 0.01 0.01 0.02 0.02 0.02 0.02 0.01 0.02 0.03 0.03 0.02 0.03 0.04 0.04 0.04
0.06 0.08 0.08 0.07 0.07 0.07 0.08 0.08 0.07 0.06 0.05 0.05 0.05 0.04 0.04 0.05 0.05 0.04 0.04 0.05 0.05 0.05 0.05 0.04 0.04 0.04 0.03 0.02 0.02 0.02 0.02 0.02 0.02 0.05 0.06 0.03 0.01 0.02 0.03 0.03 0.03 0.02 0.02
MSLP
1011.50 1011.92 1012.39 1012.88 1013.31 1013.66 1013.91 1014.06 1014.13 1014.14 1014.13 1014.11 1014.10 1014.09 1014.10 1014.10 1014.10 1014.10 1014.11 1014.13 1014.17 1014.25 1014.37 1014.51 1014.68 1014.87 1015.05 1015.22 1015.37 1015.49 1015.59 1015.65 1015.68 1015.67 1015.60 1015.48 1015.29 1015.05 1014.75 1014.42 1014.09 1013.76 1013.48
1010.94 1011.38 1011.88 1012.38 1012.83 1013.20 1013.47 1013.64 1013.73 1013.76 1013.77 1013.78 1013.79 1013.82 1013.86 1013.92 1013.97 1014.02 1014.07 1014.12 1014.18 1014.25 1014.34 1014.45 1014.58 1014.72 1014.88 1015.03 1015.19 1015.35 1015.49 1015.61 1015.71 1015.77 1015.78 1015.72 1015.59 1015.39 1015.12 1014.81 1014.47 1014.14 1013.83
1010.36 1010.84 1011.36 1011.87 1012.33 1012.70 1012.98 1013.16 1013.27 1013.32 1013.35 1013.39 1013.44 1013.51 1013.60 1013.70 1013.81 1013.91 1014.00 1014.09 1014.16 1014.24 1014.32 1014.41 1014.52 1014.63 1014.77 1014.91 1015.08 1015.25 1015.42 1015.59 1015.74 1015.86 1015.93 1015.93 1015.86 1015.70 1015.48 1015.19 1014.87 1014.54 1014.21
1009.72 1010.25 1010.79 1011.31 1011.77 1012.14 1012.42 1012.61 1012.73 1012.82 1012.89 1012.96 1013.05 1013.17 1013.31 1013.46 1013.61 1013.76 1013.89 1014.00 1014.10 1014.19 1014.27 1014.36 1014.45 1014.56 1014.68 1014.83 1014.99 1015.17 1015.37 1015.57 1015.76 1015.92 1016.03 1016.08 1016.06 1015.96 1015.78 1015.53 1015.24 1014.92 1014.59
1009.04 1009.60 1010.16 1010.69 1011.14 1011.51 1011.80 1012.01 1012.16 1012.28 1012.40 1012.52 1012.66 1012.83 1013.01 1013.20 1013.39 1013.56 1013.71 1013.84 1013.96 1014.06 1014.15 1014.24 1014.34 1014.45 1014.58 1014.72 1014.89 1015.08 1015.29 1015.50 1015.71 1015.89 1016.04 1016.12 1016.14 1016.09 1015.96 1015.77 1015.51 1015.22 1014.90
1008.34 1008.94 1009.51 1010.04 1010.49 1010.86 1011.16 1011.39 1011.58 1011.75 1011.92 1012.10 1012.30 1012.51 1012.73 1012.94 1013.14 1013.32 1013.48 1013.62 1013.74 1013.84 1013.95 1014.05 1014.16 1014.29 1014.42 1014.58 1014.75 1014.94 1015.14 1015.35 1015.56 1015.75 1015.91 1016.02 1016.07 1016.06 1015.98 1015.84 1015.63 1015.38 1015.09
1007.71 1008.31 1008.89 1009.40 1009.85 1010.22 1010.53 1010.80 1011.04 1011.27 1011.50 1011.74 1011.98 1012.23 1012.47 1012.69 1012.89 1013.06 1013.20 1013.33 1013.44 1013.55 1013.66 1013.78 1013.91 1014.05 1014.20 1014.36 1014.54 1014.72 1014.91 1015.11 1015.30 1015.48 1015.63 1015.75 1015.83 1015.85 1015.82 1015.72 1015.56 1015.35 1015.10
1007.20 1007.80 1008.35 1008.85 1009.28 1009.65 1009.97 1010.27 1010.55 1010.84 1011.12 1011.41 1011.70 1011.97 1012.21 1012.42 1012.60 1012.75 1012.87 1012.97 1013.07 1013.18 1013.30 1013.44 1013.59 1013.75 1013.92 1014.09 1014.26 1014.44 1014.61 1014.77 1014.94 1015.09 1015.23 1015.34 1015.43 1015.47 1015.46 1015.41 1015.30 1015.13 1014.92
1006.87 1007.43 1007.94 1008.40 1008.80 1009.16 1009.49 1009.81 1010.12 1010.45 1010.77 1011.10 1011.40 1011.68 1011.92 1012.11 1012.26 1012.37 1012.46 1012.55 1012.64 1012.75 1012.89 1013.04 1013.22 1013.40 1013.59 1013.78 1013.95 1014.10 1014.25 1014.38 1014.51 1014.63 1014.74 1014.84 1014.91 1014.96 1014.98 1014.95 1014.87 1014.74 1014.56
1006.72 1007.22 1007.67 1008.07 1008.43 1008.76 1009.07 1009.39 1009.72 1010.06 1010.41 1010.74 1011.05 1011.31 1011.53 1011.69 1011.81 1011.90 1011.97 1012.05 1012.14 1012.27 1012.43 1012.62 1012.82 1013.04 1013.25 1013.44 1013.61 1013.75 1013.87 1013.98 1014.07 1014.15 1014.22 1014.29 1014.35 1014.40 1014.41 1014.40 1014.34 1014.24 1014.09
1006.71 1007.13 1007.50 1007.83 1008.13 1008.41 1008.70 1009.00 1009.32 1009.65 1009.98 1010.30 1010.58 1010.82 1011.01 1011.14 1011.24 1011.31 1011.38 1011.46 1011.58 1011.74 1011.93 1012.16 1012.41 1012.66 1012.89 1013.10 1013.27 1013.40 1013.50 1013.58 1013.64 1013.68 1013.73 1013.77 1013.81 1013.84 1013.85 1013.83 1013.78 1013.69 1013.56
1006.78 1007.10 1007.39 1007.64 1007.87 1008.10 1008.34 1008.60 1008.89 1009.18 1009.47 1009.75 1009.99 1010.19 1010.34 1010.45 1010.53 1010.60 1010.68 1010.79 1010.95 1011.15 1011.40 1011.68 1011.97 1012.25 1012.51 1012.74 1012.91 1013.05 1013.14 1013.19 1013.23 1013.26 1013.28 1013.30 1013.32 1013.33 1013.33 1013.30 1013.24 1013.15 1013.03
1006.85 1007.08 1007.27 1007.45 1007.61 1007.78 1007.97 1008.18 1008.41 1008.65 1008.89 1009.11 1009.29 1009.44 1009.55 1009.64 1009.71 1009.79 1009.90 1010.05 1010.25 1010.51 1010.81 1011.14 1011.47 1011.79 1012.08 1012.32 1012.51 1012.65 1012.74 1012.80 1012.84 1012.86 1012.88 1012.89 1012.89 1012.89 1012.87 1012.82 1012.75 1012.65 1012.51
1006.87 1007.00 1007.12 1007.22 1007.33 1007.45 1007.58 1007.74 1007.91 1008.09 1008.26 1008.41 1008.53 1008.63 1008.70 1008.76 1008.83 1008.92 1009.06 1009.25 1009.50 1009.81 1010.15 1010.52 1010.89 1011.24 1011.55 1011.81 1012.01 1012.17 1012.28 1012.35 1012.41 1012.45 1012.48 1012.50 1012.50 1012.49 1012.46 1012.40 1012.30 1012.18 1012.04
1006.79 1006.85 1006.90 1006.95 1007.01 1007.09 1007.19 1007.30 1007.42 1007.53 1007.63 1007.71 1007.77 1007.81 1007.84 1007.87 1007.93 1008.03 1008.19 1008.41 1008.70 1009.03 1009.41 1009.80 1010.18 1010.55 1010.87 1011.14 1011.36 1011.54 1011.69 1011.80 1011.89 1011.97 1012.04 1012.08 1012.11 1012.11 1012.07 1012.00 1011.89 1011.75 1011.58
1006.61 1006.60 1006.60 1006.62 1006.66 1006.72 1006.79 1006.87 1006.94 1007.01 1007.05 1007.06 1007.06 1007.04 1007.02 1007.03 1007.07 1007.16 1007.32 1007.55 1007.84 1008.18 1008.56 1008.95 1009.33 1009.68 1010.01 1010.29 1010.54 1010.75 1010.93 1011.10 1011.25 1011.39 1011.51 1011.61 1011.67 1011.69 1011.67 1011.59 1011.47 1011.32 1011.14
1006.35 1006.29 1006.25 1006.25 1006.28 1006.33 1006.39 1006.46 1006.50 1006.52 1006.52 1006.48 1006.41 1006.34 1006.28 1006.24 1006.25 1006.32 1006.46 1006.66 1006.94 1007.25 1007.60 1007.96 1008.32 1008.66 1008.97 1009.26 1009.53 1009.78 1010.02 1010.25 1010.48 1010.69 1010.89 1011.05 1011.16 1011.22 1011.22 1011.16 1011.04 1010.88 1010.69
1006.03 1005.92 1005.87 1005.86 1005.88 1005.93 1006.00 1006.05 1006.08 1006.07 1006.02 1005.93 1005.82 1005.70 1005.58 1005.50 1005.46 1005.49 1005.59 1005.76 1005.99 1006.26 1006.56 1006.88 1007.19 1007.50 1007.80 1008.10 1008.39 1008.68 1008.98 1009.29 1009.60 1009.90 1010.18 1010.41 1010.59 1010.70 1010.73 1010.69 1010.58 1010.42 1010.24
1005.69 1005.54 1005.46 1005.44 1005.47 1005.52 1005.58 1005.63 1005.64 1005.61 1005.52 1005.40 1005.24 1005.07 1004.91 1004.78 1004.70 1004.68 1004.73 1004.84 1005.01 1005.23 1005.48 1005.74 1006.02 1006.30 1006.58 1006.88 1007.20 1007.54 1007.90 1008.28 1008.67 1009.06 1009.42 1009.73 1009.97 1010.13 1010.20 1010.19 1010.11 1009.97 1009.79
1005.37 1005.18 1005.07 1005.03 1005.04 1005.09 1005.14 1005.17 1005.16 1005.10 1004.99 1004.83 1004.64 1004.43 1004.23 1004.06 1003.94 1003.88 1003.88 1003.95 1004.07 1004.23 1004.43 1004.65 1004.88 1005.14 1005.42 1005.73 1006.07 1006.46 1006.88 1007.33 1007.79 1008.25 1008.68 1009.06 1009.36 1009.57 1009.69 1009.71 1009.65 1009.53 1009.37
1005.10 1004.87 1004.72 1004.65 1004.64 1004.66 1004.69 1004.69 1004.65 1004.56 1004.42 1004.23 1004.01 1003.78 1003.55 1003.36 1003.21 1003.12 1003.10 1003.13 1003.22 1003.35 1003.51 1003.70 1003.92 1004.17 1004.45 1004.77 1005.14 1005.56 1006.02 1006.52 1007.04 1007.56 1008.04 1008.46 1008.81 1009.06 1009.21 1009.26 1009.23 1009.14 1009.01
1004.95 1004.67 1004.48 1004.36 1004.31 1004.28 1004.26 1004.22 1004.15 1004.02 1003.85 1003.64 1003.40 1003.16 1002.93 1002.73 1002.59 1002.50 1002.47 1002.50 1002.57 1002.69 1002.85 1003.03 1003.25 1003.49 1003.78 1004.11 1004.50 1004.94 1005.43 1005.96 1006.50 1007.04 1007.55 1008.00 1008.36 1008.63 1008.81 1008.88 1008.88 1008.81 1008.71
1004.95 1004.63 1004.39 1004.22 1004.10 1004.02 1003.94 1003.85 1003.73 1003.57 1003.37 1003.14 1002.90 1002.67 1002.46 1002.29 1002.17 1002.11 1002.11 1002.16 1002.26 1002.39 1002.56 1002.75 1002.98 1003.23 1003.53 1003.87 1004.26 1004.70 1005.19 1005.71 1006.24 1006.77 1007.26 1007.70 1008.06 1008.33 1008.50 1008.59 1008.60 1008.55 1008.47
1005.15 1004.79 1004.50 1004.28 1004.10 1003.95 1003.81 1003.66 1003.49 1003.30 1003.08 1002.86 1002.63 1002.43 1002.26 1002.13 1002.07 1002.06 1002.11 1002.21 1002.34 1002.52 1002.71 1002.93 1003.16 1003.43 1003.72 1004.05 1004.42 1004.84 1005.29 1005.78 1006.27 1006.75 1007.20 1007.59 1007.91 1008.15 1008.31 1008.39 1008.40 1008.35 1008.28
1005.55 1005.17 1004.85 1004.57 1004.34 1004.13 1003.93 1003.73 1003.52 1003.30 1003.08 1002.86 1002.67 1002.52 1002.41 1002.35 1002.35 1002.42 1002.53 1002.69 1002.88 1003.09 1003.31 1003.55 1003.79 1004.05 1004.33 1004.63 1004.97 1005.34 1005.73 1006.14 1006.56 1006.96 1007.34 1007.66 1007.92 1008.11 1008.23 1008.27 1008.27 1008.22 1008.14
1006.14 1005.75 1005.40 1005.10 1004.82 1004.56 1004.31 1004.07 1003.84 1003.61 1003.40 1003.22 1003.08 1002.98 1002.94 1002.96 1003.04 1003.18 1003.36 1003.57 1003.81 1004.05 1004.30 1004.54 1004.78 1005.02 1005.27 1005.53 1005.81 1006.11 1006.42 1006.75 1007.07 1007.38 1007.66 1007.89 1008.07 1008.19 1008.25 1008.25 1008.21 1008.13 1008.04
Thickness
5777 5775 5773 5771 5770 5768 5766 5765 5764 5763 5762 5760 5758 5757 5756 5755 5754 5752 5750 5749 5746 5745 5744 5742 5741 5741 5739 5738 5737 5735 5733 5730 5727 5731 5733 5734 5733 5733 5733 5732 5731 5731 5731
5776 5773 5770 5768 5766 5764 5763 5762 5761 5759 5758 5757 5755 5753 5751 5750 5749 5747 5745 5744 5742 5740 5739 5738 5736 5736 5733 5733 5732 5730 5729 5728 5724 5723 5725 5725 5725 5726 5726 5725 5726 5726 5725
5773 5769 5765 5763 5761 5760 5759 5758 5757 5755 5754 5753 5751 5748 5747 5746 5744 5743 5741 5740 5738 5736 5735 5733 5732 5730 5728 5727 5726 5725 5724 5724 5721 5719 5719 5719 5719 5720 5718 5718 5719 5719 5720
5768 5764 5760 5759 5758 5757 5755 5753 5752 5751 5749 5748 5746 5744 5743 5741 5739 5738 5737 5735 5733 5732 5731 5729 5728 5726 5724 5723 5722 5719 5718 5716 5715 5713 5712 5712 5711 5712 5710 5709 5709 5711 5711
5762 5759 5756 5754 5754 5752 5750 5749 5748 5747 5745 5743 5741 5739 5738 5736 5735 5733 5732 5730 5728 5726 5725 5725 5724 5723 5722 5720 5718 5714 5712 5709 5707 5705 5703 5703 5703 5702 5701 5702 5701 5702 5704
5756 5754 5753 5750 5748 5746 5745 5743 5741 5740 5739 5737 5735 5733 5732 5732 5731 5730 5727 5724 5722 5720 5719 5718 5719 5717 5716 5715 5713 5711 5709 5704 5701 5698 5696 5695 5696 5695 5695 5695 5693 5692 5694
5750 5747 5745 5743 5741 5740 5739 5737 5734 5733 5731 5729 5728 5727 5725 5725 5724 5723 5721 5718 5716 5714 5713 5711 5711 5711 5709 5707 5706 5704 5703 5702 5700 5696 5692 5691 5691 5691 5688 5687 5687 5686 5687
5741 5739 5738 5736 5734 5733 5731 5729 5727 5726 5723 5721 5720 5719 5718 5718 5717 5715 5714 5712 5709 5708 5707 5705 5703 5702 5702 5699 5698 5696 5694 5694 5693 5691 5689 5688 5688 5687 5685 5684 5682 5681 5682
5732 5731 5731 5730 5728 5725 5723 5722 5720 5718 5716 5714 5713 5712 5710 5709 5709 5707 5706 5703 5701 5700 5700 5699 5697 5696 5695 5693 5690 5687 5686 5685 5686 5685 5683 5682 5682 5681 5680 5676 5673 5671 5670
5726 5724 5725 5724 5721 5719 5716 5714 5712 5710 5708 5707 5705 5704 5702 5701 5700 5699 5697 5695 5693 5692 5691 5691 5691 5689 5688 5686 5682 5679 5677 5677 5677 5676 5674 5673 5673 5672 5672 5669 5667 5663 5662
5721 5719 5718 5717 5715 5713 5710 5707 5705 5702 5700 5698 5696 5695 5693 5692 5691 5690 5689 5687 5685 5683 5682 5682 5682 5681 5680 5678 5676 5673 5672 5670 5668 5666 5665 5663 5663 5663 5663 5662 5661 5659 5656
5714 5711 5710 5709 5708 5707 5702 5700 5697 5694 5691 5688 5685 5683 5683 5682 5681 5681 5680 5679 5677 5675 5674 5674 5674 5673 5672 5670 5668 5667 5664 5662 5659 5656 5655 5654 5653 5653 5653 5653 5653 5652 5652
5704 5702 5701 5701 5699 5698 5694 5691 5688 5685 5682 5679 5676 5674 5672 5672 5672 5672 5671 5670 5669 5667 5666 5666 5665 5664 5663 5660 5659 5658 5655 5652 5649 5647 5646 5645 5645 5645 5644 5643 5643 5643 5643
5693 5692 5691 5690 5689 5688 5685 5683 5680 5676 5673 5671 5668 5665 5663 5662 5662 5661 5660 5659 5658 5657 5656 5656 5655 5654 5653 5651 5649 5647 5645 5643 5641 5639 5638 5637 5636 5635 5634 5634 5632 5632 5630
5686 5684 5682 5681 5680 5678 5676 5674 5672 5670 5668 5665 5662 5659 5655 5654 5653 5652 5651 5650 5649 5648 5646 5645 5643 5642 5641 5639 5638 5637 5636 5634 5631 5630 5628 5627 5626 5626 5625 5625 5623 5622 5621
5677 5676 5674 5673 5672 5670 5667 5664 5664 5662 5660 5658 5656 5652 5650 5648 5646 5644 5643 5642 5641 5640 5637 5635 5634 5632 5631 5630 5628 5627 5626 5625 5623 5620 5619 5617 5616 5616 5616 5616 5615 5614 5612
5669 5668 5667 5665 5664 5662 5659 5655 5652 5651 5649 5648 5646 5644 5642 5640 5638 5636 5635 5633 5632 5630 5627 5626 5625 5624 5623 5621 5620 5619 5618 5616 5614 5612 5610 5609 5608 5608 5607 5607 5606 5605 5604
5662 5661 5659 5658 5656 5654 5652 5649 5646 5643 5640 5638 5637 5636 5634 5632 5630 5628 5626 5624 5621 5620 5619 5618 5617 5616 5615 5613 5612 5611 5610 5608 5606 5604 5602 5601 5600 5599 5599 5597 5597 5596 5595
5653 5652 5652 5650 5649 5647 5645 5642 5640 5637 5634 5631 5629 5627 5626 5624 5622 5620 5618 5615 5613 5611 5610 5610 5609 5608 5607 5606 5604 5603 5601 5599 5598 5596 5594 5593 5592 5591 5590 5590 5589 5588 5586
5646 5647 5645 5642 5640 5638 5636 5635 5632 5629 5626 5624 5621 5620 5617 5614 5612 5611 5609 5608 5606 5604 5603 5602 5601 5600 5599 5598 5596 5595 5593 5592 5590 5588 5587 5585 5584 5583 5582 5581 5580 5579 5577
5638 5638 5638 5635 5632 5630 5629 5627 5625 5622 5620 5617 5615 5614 5611 5608 5606 5604 5602 5601 5599 5598 5596 5595 5593 5592 5590 5589 5587 5586 5585 5583 5581 5580 5578 5577 5576 5574 5572 5571 5571 5570 5568
5629 5629 5627 5626 5624 5622 5621 5620 5618 5616 5614 5612 5608 5607 5604 5602 5599 5597 5596 5595 5594 5592 5590 5588 5586 5584 5583 5581 5579 5578 5576 5575 5573 5571 5570 5569 5567 5565 5564 5563 5561 5560 5559
5621 5620 5619 5617 5616 5615 5614 5612 5610 5609 5607 5605 5602 5600 5597 5595 5593 5591 5589 5588 5587 5585 5583 5581 5579 5577 5575 5574 5573 5572 5569 5567 5566 5564 5562 5561 5559 5557 5556 5555 5554 5552 5551
5612 5611 5610 5609 5608 5606 5605 5604 5603 5602 5600 5598 5595 5593 5590 5588 5586 5584 5582 5581 5579 5577 5575 5573 5572 5569 5567 5566 5565 5564 5562 5561 5559 5557 5556 5555 5553 5550 5549 5547 5546 5544 5542
5604 5602 5601 5600 5599 5598 5597 5596 5595 5593 5592 5590 5588 5585 5583 5581 5578 5576 5574 5572 5570 5568 5566 5564 5562 5560 5558 5557 5556 5555 5554 5552 5551 5549 5548 5547 5546 5544 5542 5541 5538 5537 5535
5595 5594 5592 5591 5590 5589 5588 5586 5585 5584 5582 5581 5580 5577 5575 5573 5571 5569 5566 5564 5562 5559 5557 5555 5553 5552 5550 5548 5548 5546 5545 5544 5543 5542 5541 5540 5539 5537 5535 5532 5531 5529 5528